Tracking 25949 objects as of 8-Aug-2022
HD Live streaming from Space Station
objects crossing your sky now

COSMOS 1275 DEB

Track COSMOS 1275 DEB now!
10-day predictions


NORAD ID: 42145
Int'l Code: 1981-053RH
Perigee: 736.2 km
Apogee: 774.5 km
Inclination: 83.4 °
Period: 99.8 minutes
Semi major axis: 7126 km
RCS: Unknown
Launch date: June 4, 1981
Source: Commonwealth of Independent States (former USSR) (CIS)
Launch site: PLESETSK MISSILE AND SPACE COMPLEX (PKMTR)

Note: This is SATELLITE DEBRIS
aabbcc
Your satellite tracking list
Your tracking list is empty




NASA's NSSDC Master Catalog

Two Line Element Set (TLE):
1 42145U 81053RH  22217.31537161  .00002484  00000-0  73178-3 0  9991
2 42145  83.3709 174.8599 0026867 288.9735  70.8549 14.43129095457010
Source of the keplerian elements: AFSPC